Tracking 20232 objects as of 20-Jan-2020
HD Live streaming from Space Station
objects crossing your sky now

FLOCK 3P 28

Track FLOCK 3P 28 now!
10-day predictions
FLOCK 3P 28 is classified as:


NORAD ID: 41960
Int'l Code: 2017-008N
Perigee: 486.5 km
Apogee: 499.8 km
Inclination: 97.4 °
Period: 94.3 minutes
Semi major axis: 6864 km
RCS: Unknown
Launch date: February 15, 2017
Source: United States (US)
Launch site: SRIHARIKOTA (SRI)
aabbcc
Your satellite tracking list
Your tracking list is empty




NASA's NSSDC Master Catalog

Two Line Element Set (TLE):
1 41960U 17008N   20020.74223157  .00001826  00000-0  72501-4 0  9997
2 41960  97.3829  90.4550 0009669  97.2082 263.0256 15.26581918162831
Source of the keplerian elements: AFSPC